Wind_Speed
25 27 28 32 35 37 37 36 35 34 33 31 28 27 28 31 35 38 39 38 39 40 39 38 37 38 40 39 38 44 41 41 43 48 51 52 53 51 52 51 48 50 48 46 43 41 44
28 31 33 34 34 32 31 32 32 30 27 27 30 34 36 37 38 42 44 43 42 42 42 41 41 40 40 41 42 45 46 45 45 44 44 47 49 50 55 55 54 52 52 52 49 48 47
32 32 33 32 30 30 30 31 31 32 32 33 36 39 41 41 41 43 44 45 46 47 47 48 49 49 46 46 46 47 49 50 50 49 48 49 52 53 54 55 55 56 56 55 55 50 48
34 34 33 33 31 30 31 32 34 37 38 38 39 39 41 43 44 45 46 48 49 50 53 55 55 55 55 53 52 51 51 52 53 54 54 53 53 55 57 57 58 58 58 58 54 53 53
35 36 34 32 33 35 36 38 38 37 36 38 42 44 43 45 48 50 51 53 53 53 55 56 58 58 57 57 57 58 58 57 56 56 57 58 57 56 57 59 60 60 57 56 56 57 57
39 38 38 37 36 37 38 38 39 39 39 43 46 50 54 55 56 58 58 57 57 59 60 60 60 60 60 60 62 62 62 61 60 59 57 59 59 61 62 61 59 57 57 56 55 55 55
39 40 39 38 38 38 38 39 40 43 46 49 53 56 58 60 63 66 67 66 64 64 62 60 61 60 61 63 63 64 64 63 62 60 58 56 59 61 57 56 56 58 58 58 60 61 64
43 41 40 40 39 39 39 40 43 49 53 56 61 65 67 68 71 74 75 74 71 73 72 60 61 62 62 64 65 66 68 69 68 64 62 62 60 57 56 58 59 60 60 60 60 61 63
42 41 41 40 37 39 41 45 49 54 58 63 66 71 73 77 78 80 78 75 72 73 72 65 65 62 60 59 58 59 60 59 59 59 55 54 53 53 53 54 56 55 53 50 50 52 55
47 42 38 35 38 42 46 50 55 60 64 69 74 79 80 83 83 79 77 77 76 76 74 69 67 65 60 55 53 48 46 46 45 43 46 48 46 46 46 46 47 46 46 48 50 53 54
46 37 36 38 43 46 50 56 62 66 71 74 78 81 85 86 87 83 83 81 78 75 74 67 64 61 59 53 51 49 46 44 43 44 45 43 44 45 45 43 44 45 45 47 49 49 50
45 39 40 44 48 51 57 63 67 71 75 80 82 86 87 85 85 85 84 82 78 71 68 57 53 50 50 49 46 43 40 41 40 42 43 42 44 42 41 42 41 39 39 38 40 40 42
46 41 43 48 51 55 62 67 73 77 82 85 89 92 94 92 90 87 82 76 70 62 54 51 46 41 40 39 40 39 39 38 39 40 40 41 42 42 41 39 38 37 37 37 39 41 42
43 42 47 52 55 61 66 72 79 82 86 90 93 93 93 93 88 82 76 66 56 48 44 38 38 37 39 40 38 37 37 35 34 37 39 42 43 42 43 43 40 41 43 42 44 45 41
42 45 50 55 59 66 70 76 81 85 89 92 92 93 93 89 81 74 69 59 43 31 33 31 26 29 35 39 42 42 40 29 27 29 30 35 40 41 43 42 43 45 45 43 43 44 47
44 49 53 59 64 69 74 79 83 87 91 91 93 93 88 81 73 68 60 42 21 25 26 29 31 23 21 22 25 27 30 33 42 39 39 35 28 26 35 43 46 50 37 38 41 43 42
46 51 56 62 68 72 77 81 85 89 89 92 93 88 82 73 67 62 54 36 20 23 31 32 32 32 29 29 29 29 31 35 37 37 36 36 36 35 31 31 31 29 31 36 34 28 30
48 54 60 65 70 76 79 83 86 87 88 90 89 83 73 64 60 57 46 36 28 24 26 22 17 8 21 15 18 23 21 21 23 27 28 32 34 37 44 47 43 34 32 42 48 45 39
51 57 62 68 74 77 80 83 86 87 90 89 83 76 68 61 56 50 37 25 24 26 24 17 20 21 23 20 20 11 7 8 11 14 17 20 22 22 25 26 30 31 32 29 31 37 39
54 59 64 72 75 78 81 83 85 89 88 84 79 71 63 58 56 49 42 33 27 25 24 22 25 28 28 18 12 13 12 8 7 9 9 11 18 28 34 35 33 30 30 28 24 29 41
57 62 68 74 75 79 81 82 85 86 83 80 76 68 61 57 50 45 39 36 31 26 24 27 30 25 20 15 9 15 14 16 14 10 11 14 13 13 23 34 36 30 31 34 34 31 34
60 64 69 72 76 79 80 82 84 82 78 75 69 64 58 52 46 44 40 36 34 28 31 30 27 15 13 9 9 11 11 13 17 17 22 24 25 27 25 25 31 36 39 37 34 33 36
61 65 68 73 75 77 79 81 81 77 76 73 65 60 56 52 46 44 42 41 36 32 27 23 19 9 8 9 9 10 13 16 21 25 28 30 30 25 22 23 27 33 42 42 39 35 37
61 64 68 71 73 76 79 80 78 75 74 69 63 60 56 51 47 45 40 39 35 31 26 19 16 12 13 14 17 20 22 24 24 23 17 12 10 10 11 15 19 24 31 41 45 46 45
60 63 68 69 72 75 77 78 74 73 71 65 61 59 56 52 48 46 41 37 33 31 27 21 17 16 16 19 18 13 9 7 7 7 5 6 5 1 5 4 11 9 14 20 27 31 31
59 63 67 68 71 74 76 74 71 71 69 64 59 57 55 50 47 46 40 33 29 25 24 21 20 19 16 14 11 10 10 9 9 10 9 4 1 6 4 9 13 8 6 8 12 18 27
59 62 65 67 70 73 74 71 68 69 67 62 59 57 52 46 45 42 34 30 26 26 25 21 19 19 17 16 12 8 7 8 10 12 15 10 7 3 8 10 10 9 8 7 8 11 13
59 62 63 65 70 71 71 68 66 68 66 61 59 55 48 44 43 37 31 29 27 26 27 24 20 19 18 15 12 9 4 4 6 8 12 11 7 2 6 9 8 9 10 6 7 7 10
58 60 61 64 68 70 69 66 65 66 64 61 58 54 44 44 41 33 27 28 27 27 26 24 23 21 19 17 16 13 9 4 5 7 7 5 4 3 1 2 5 8 10 9 7 8 11
Wind_Direction
326 323 324 323 323 321 320 320 319 320 318 315 314 314 313 312 310 307 306 304 301 299 297 294 292 289 287 282 276 277 278 270 266 262 259 258 258 257 255 255 251 250 251 251 250 246 243
328 326 324 322 321 324 323 324 324 326 323 319 316 315 313 311 311 311 311 310 306 303 299 295 292 288 285 283 280 276 273 269 266 265 263 263 263 259 256 253 251 253 252 253 251 249 246
326 323 321 321 319 324 328 328 329 329 324 320 319 318 315 314 312 310 308 307 305 302 299 295 294 292 289 282 279 275 272 272 271 266 260 257 260 261 262 260 258 257 257 257 257 256 254
328 327 323 325 330 333 331 329 328 326 325 322 319 318 316 313 310 307 304 302 298 295 292 290 289 287 291 288 285 281 277 273 270 268 265 261 256 254 257 259 259 258 257 257 258 259 258
333 336 337 335 334 335 334 333 331 328 325 322 319 316 312 306 305 302 300 299 296 292 288 286 287 284 284 282 281 279 277 273 269 265 263 261 258 256 254 255 255 256 259 260 259 257 255
334 331 335 337 338 335 332 331 327 326 323 319 316 313 313 312 308 307 305 304 302 301 298 294 290 286 281 277 275 272 270 269 266 262 256 254 254 255 255 254 258 259 258 257 256 255 254
331 332 336 336 335 333 333 333 328 322 319 316 315 315 314 312 313 313 312 311 305 303 302 295 287 285 279 274 270 269 267 267 264 261 259 257 254 255 257 255 253 251 249 248 249 249 250
333 333 334 336 335 332 330 326 322 320 319 318 318 320 320 320 319 317 316 312 309 306 304 294 286 284 278 275 272 270 269 268 268 268 266 262 261 259 255 253 252 252 252 251 250 250 251
336 330 331 334 333 329 324 322 323 323 323 322 323 323 325 323 321 318 315 313 308 303 300 298 289 285 282 279 276 273 269 267 266 265 263 260 258 254 251 250 250 251 252 252 255 255 254
334 335 337 335 328 325 323 323 323 325 326 327 327 324 323 321 319 318 314 310 306 303 298 296 292 290 287 284 279 275 271 267 264 259 256 255 255 253 251 248 248 248 252 253 252 253 255
338 337 333 329 328 327 325 325 327 329 328 329 327 325 325 322 320 318 314 310 307 304 298 298 294 290 286 282 279 276 271 266 261 258 256 256 251 249 249 248 249 250 250 251 251 251 250
333 329 328 327 328 327 327 329 330 329 329 329 328 326 324 322 320 318 315 311 307 301 296 289 286 281 280 278 275 271 266 263 257 255 253 250 251 250 248 249 251 251 250 246 245 245 248
328 327 326 328 327 327 328 331 332 331 330 329 327 326 325 324 322 320 316 314 310 302 295 285 279 273 270 266 265 264 265 263 260 258 253 249 247 249 250 248 247 243 234 234 233 238 243
330 326 327 329 329 329 331 333 333 333 331 330 329 328 326 327 325 323 323 320 314 304 293 280 275 268 263 258 254 253 253 254 250 253 254 251 248 245 244 247 243 237 231 231 237 236 238
328 327 329 330 330 332 332 332 332 332 331 332 331 329 330 329 329 330 330 328 324 312 301 301 286 275 266 262 259 257 249 237 229 238 240 246 246 245 241 238 236 237 236 242 245 247 249
329 331 331 332 332 333 333 334 335 333 334 332 332 333 334 333 334 336 337 341 312 283 283 290 296 300 295 286 271 258 249 237 233 236 243 240 223 234 233 235 236 239 246 253 254 252 251
330 332 332 332 334 335 336 336 336 336 335 334 335 336 337 338 338 339 343 353 345 296 290 293 290 294 303 296 292 284 273 256 249 245 233 225 225 234 214 215 220 227 233 223 218 224 245
333 333 333 334 337 338 338 338 338 337 337 337 339 340 341 343 342 344 348 355 356 358 347 343 349 324 314 319 310 302 294 279 266 259 248 243 246 243 238 243 251 246 240 234 230 229 233
335 334 336 338 338 339 339 339 339 338 338 340 342 342 343 344 344 349 354 354 349 348 351 345 343 344 332 314 315 302 295 278 258 253 249 240 231 226 208 213 210 213 224 229 233 232 232
336 337 339 339 339 341 341 341 339 340 341 343 344 345 347 347 349 352 356 355 346 350 345 338 326 319 326 312 300 274 273 279 292 320 298 260 241 234 227 232 231 237 243 244 228 227 224
338 339 341 340 341 342 342 341 341 342 344 345 347 348 350 350 352 355 352 346 344 335 338 336 338 321 325 333 310 299 265 281 257 263 287 290 277 275 253 237 233 234 223 213 211 214 216
339 340 342 342 342 342 343 342 342 344 345 346 348 349 351 350 353 356 357 350 342 336 329 332 340 339 342 334 310 311 273 300 265 268 294 298 291 286 281 254 235 228 225 218 217 216 222
339 341 343 342 342 343 342 342 343 346 346 348 349 350 349 350 349 351 353 353 353 348 338 336 341 329 331 309 328 311 293 280 275 281 290 293 290 281 266 250 237 229 232 231 232 223 228
340 342 343 342 342 343 343 344 345 347 347 348 349 350 349 350 348 347 348 350 355 358 354 351 345 339 328 321 308 302 297 298 296 294 298 301 287 270 257 244 237 232 229 233 237 237 239
341 343 342 342 343 344 344 345 347 347 347 349 350 349 349 348 347 346 345 348 349 355 2 3 349 338 330 321 327 329 337 358 10 12 354 334 326 46 319 209 191 214 223 225 226 227 226
342 342 342 342 343 344 345 346 347 347 348 349 350 350 349 348 348 346 346 346 347 351 358 5 9 2 5 3 12 41 33 62 27 9 3 7 192 71 59 154 140 136 151 206 214 221 221
342 341 341 343 344 345 346 346 348 347 349 349 351 351 350 351 351 351 354 355 359 3 5 7 7 10 19 20 25 43 56 43 41 40 28 38 125 109 90 142 168 152 168 176 182 194 205
340 340 341 343 344 345 346 347 348 347 349 350 351 351 351 353 354 357 5 12 12 12 14 13 9 8 10 11 14 27 17 12 30 38 33 38 55 105 133 139 161 181 166 183 201 197 202
338 340 342 344 344 345 346 346 348 347 349 350 352 352 352 354 355 360 8 10 11 11 11 16 22 26 28 29 31 32 37 28 20 10 22 29 14 31 134 203 208 199 203 211 199 196 200
Height
5803 5800 5795 5790 5785 5779 5774 5768 5763 5759 5754 5750 5747 5743 5739 5736 5730 5725 5721 5718 5713 5708 5703 5700 5696 5692 5690 5690 5686 5682 5683 5682 5681 5679 5677 5675 5674 5675 5675 5677 5679 5677 5680 5682 5686 5691 5691
5801 5797 5791 5785 5780 5774 5769 5763 5758 5754 5750 5746 5743 5738 5734 5729 5723 5716 5711 5708 5704 5699 5695 5690 5687 5684 5682 5679 5677 5673 5669 5667 5668 5668 5667 5665 5665 5664 5661 5663 5664 5667 5669 5669 5673 5675 5678
5798 5792 5786 5780 5774 5769 5764 5758 5753 5749 5746 5742 5738 5732 5726 5720 5716 5711 5704 5699 5695 5690 5685 5680 5676 5672 5670 5666 5664 5661 5658 5657 5655 5654 5653 5653 5651 5650 5652 5651 5654 5656 5656 5659 5660 5665 5668
5793 5787 5781 5775 5770 5765 5760 5755 5750 5745 5740 5735 5730 5725 5720 5713 5709 5703 5697 5691 5686 5680 5675 5669 5664 5660 5658 5653 5649 5647 5644 5643 5642 5640 5638 5638 5638 5637 5637 5638 5639 5641 5642 5645 5651 5654 5654
5788 5783 5776 5771 5766 5760 5755 5749 5744 5740 5734 5728 5721 5715 5712 5707 5698 5693 5686 5680 5673 5667 5662 5656 5652 5647 5644 5639 5634 5630 5627 5625 5624 5623 5621 5619 5618 5621 5623 5623 5624 5626 5630 5634 5636 5636 5637
5784 5779 5773 5767 5761 5755 5750 5744 5738 5733 5728 5722 5715 5708 5700 5694 5686 5678 5670 5664 5657 5650 5644 5638 5633 5629 5625 5619 5614 5610 5607 5605 5604 5603 5602 5601 5601 5602 5603 5605 5613 5615 5616 5619 5621 5623 5622
5780 5774 5768 5762 5756 5750 5744 5739 5734 5727 5721 5714 5706 5698 5690 5679 5669 5660 5653 5645 5638 5631 5626 5619 5610 5606 5601 5596 5593 5591 5587 5584 5583 5582 5582 5583 5583 5586 5592 5591 5592 5592 5595 5600 5603 5604 5603
5776 5769 5763 5756 5749 5744 5739 5734 5728 5721 5712 5704 5694 5684 5675 5664 5651 5640 5631 5621 5611 5602 5604 5599 5587 5581 5578 5574 5571 5569 5566 5564 5563 5564 5563 5563 5567 5571 5572 5572 5573 5576 5580 5586 5587 5587 5587
5770 5764 5757 5750 5744 5739 5733 5727 5720 5712 5702 5691 5680 5667 5656 5646 5632 5621 5609 5599 5588 5578 5571 5581 5565 5560 5558 5556 5552 5547 5544 5542 5543 5543 5544 5544 5549 5551 5553 5555 5558 5562 5567 5571 5573 5572 5572
5766 5757 5750 5745 5741 5734 5727 5719 5711 5701 5690 5676 5663 5650 5640 5629 5616 5602 5590 5577 5565 5554 5542 5549 5543 5536 5532 5531 5529 5528 5527 5527 5527 5527 5526 5529 5532 5536 5539 5543 5544 5549 5554 5555 5556 5556 5562
5759 5752 5747 5742 5735 5728 5720 5711 5700 5688 5677 5664 5648 5634 5621 5603 5594 5581 5567 5554 5542 5531 5517 5515 5514 5512 5511 5512 5510 5509 5510 5509 5511 5511 5514 5517 5518 5522 5526 5532 5529 5539 5538 5540 5542 5544 5546
5755 5748 5742 5736 5728 5720 5711 5700 5689 5676 5664 5650 5635 5619 5605 5591 5573 5560 5544 5530 5519 5510 5500 5494 5491 5491 5492 5492 5491 5492 5493 5494 5496 5497 5499 5504 5505 5509 5514 5516 5520 5524 5527 5530 5531 5534 5534
5749 5743 5737 5730 5721 5712 5701 5690 5677 5663 5649 5634 5618 5602 5585 5568 5553 5536 5520 5506 5496 5488 5478 5475 5474 5476 5476 5476 5477 5478 5479 5481 5483 5484 5488 5491 5494 5498 5502 5505 5508 5513 5517 5518 5520 5522 5528
5744 5737 5731 5723 5713 5703 5691 5679 5665 5650 5634 5618 5600 5583 5565 5549 5531 5514 5498 5484 5472 5465 5461 5460 5460 5462 5462 5462 5464 5466 5467 5470 5472 5472 5475 5478 5483 5486 5490 5493 5498 5501 5504 5507 5509 5514 5521
5739 5733 5725 5715 5705 5694 5681 5668 5654 5639 5621 5603 5584 5566 5547 5529 5512 5496 5482 5468 5459 5453 5448 5446 5449 5447 5448 5448 5450 5453 5457 5458 5458 5461 5466 5465 5469 5473 5477 5481 5486 5489 5492 5498 5501 5504 5508
5734 5726 5717 5707 5697 5684 5672 5658 5644 5627 5609 5589 5571 5551 5534 5514 5498 5484 5471 5460 5454 5449 5445 5443 5441 5440 5439 5440 5441 5442 5445 5447 5449 5450 5452 5455 5459 5461 5463 5468 5472 5477 5484 5487 5489 5492 5494
5727 5719 5710 5700 5688 5675 5662 5648 5633 5616 5597 5576 5556 5540 5522 5504 5489 5476 5466 5456 5452 5448 5444 5441 5438 5436 5434 5433 5433 5433 5434 5435 5437 5440 5442 5444 5449 5456 5458 5459 5463 5468 5472 5477 5480 5484 5486
5721 5714 5704 5692 5679 5666 5653 5638 5622 5607 5591 5568 5544 5529 5514 5502 5486 5468 5459 5453 5450 5447 5442 5438 5435 5432 5431 5429 5428 5427 5426 5425 5426 5428 5431 5434 5438 5442 5449 5451 5453 5457 5459 5464 5469 5475 5479
5717 5707 5696 5684 5671 5657 5643 5628 5611 5594 5577 5561 5545 5525 5507 5494 5487 5472 5459 5453 5449 5446 5442 5438 5434 5431 5428 5426 5425 5424 5422 5422 5421 5422 5423 5426 5429 5434 5438 5442 5444 5447 5450 5455 5460 5464 5471
5711 5700 5688 5676 5663 5649 5635 5619 5601 5584 5566 5549 5535 5522 5506 5489 5476 5467 5460 5454 5450 5445 5440 5437 5432 5428 5424 5421 5421 5421 5421 5420 5420 5420 5421 5421 5423 5427 5430 5432 5437 5441 5445 5448 5452 5456 5461
5704 5693 5681 5669 5656 5642 5627 5610 5593 5575 5558 5543 5527 5511 5498 5488 5477 5466 5458 5452 5447 5442 5439 5433 5429 5422 5419 5417 5417 5417 5417 5417 5417 5417 5418 5419 5419 5421 5421 5423 5428 5434 5437 5441 5445 5449 5455
5698 5686 5675 5663 5649 5635 5620 5604 5587 5570 5554 5539 5524 5511 5498 5486 5477 5468 5459 5451 5444 5440 5433 5430 5425 5420 5418 5416 5415 5414 5412 5412 5412 5413 5412 5413 5412 5412 5413 5415 5419 5424 5429 5433 5437 5443 5447
5692 5681 5669 5657 5644 5629 5613 5598 5582 5566 5550 5536 5523 5510 5497 5487 5477 5468 5459 5450 5442 5434 5429 5424 5422 5419 5417 5416 5413 5411 5410 5409 5409 5407 5406 5404 5403 5403 5404 5406 5411 5416 5418 5425 5430 5435 5442
5686 5675 5663 5651 5638 5623 5607 5592 5576 5561 5546 5532 5519 5507 5496 5486 5476 5467 5459 5449 5442 5434 5428 5423 5421 5418 5417 5413 5411 5409 5407 5405 5403 5401 5399 5397 5396 5396 5398 5400 5404 5408 5413 5417 5423 5429 5435
5681 5670 5658 5646 5632 5617 5602 5587 5572 5557 5543 5530 5517 5504 5493 5483 5475 5465 5457 5449 5442 5435 5429 5423 5420 5418 5414 5411 5407 5404 5402 5401 5400 5398 5397 5396 5396 5396 5397 5398 5402 5404 5407 5412 5416 5422 5427
5675 5665 5653 5640 5626 5612 5598 5583 5569 5555 5541 5527 5515 5503 5492 5482 5472 5463 5454 5448 5443 5438 5431 5426 5421 5417 5413 5409 5407 5404 5404 5403 5402 5400 5398 5396 5396 5397 5397 5399 5403 5405 5407 5409 5412 5416 5421
5671 5660 5648 5635 5622 5608 5594 5580 5567 5554 5539 5526 5513 5502 5491 5481 5471 5463 5455 5448 5442 5437 5431 5427 5423 5419 5415 5412 5408 5407 5407 5406 5405 5403 5400 5398 5398 5399 5400 5402 5404 5406 5408 5410 5413 5418 5418
5666 5655 5643 5630 5618 5604 5590 5577 5565 5552 5538 5526 5513 5501 5491 5482 5473 5464 5456 5450 5444 5440 5435 5430 5426 5421 5417 5414 5412 5410 5409 5408 5407 5406 5404 5403 5402 5402 5403 5404 5407 5407 5409 5412 5414 5415 5417
5661 5650 5638 5626 5613 5600 5588 5575 5563 5549 5536 5524 5512 5501 5491 5482 5474 5466 5459 5454 5448 5443 5438 5433 5429 5425 5421 5418 5415 5412 5411 5410 5409 5408 5407 5407 5406 5406 5406 5406 5406 5407 5409 5411 5413 5414 5416